PY2SDN-13 Weather Reports


time (UTC)temp
C
wind
direction
speed
KPH
gust
KPH
rain 1hr
cm
rain 24hr
cm
rain mn
cm
humidity
%
barometer
mb
20260505184503 25 144 0.0 6.4 0.00 0.00 0.00 26 1013.2
20260505183003 25 121 3.2 6.4 0.00 0.00 0.00 26 1013.2
20260505181503 25 131 3.2 8.0 0.00 0.00 0.00 26 1013.1
20260505180003 26 129 3.2 8.0 0.00 0.00 0.00 26 1013.1
20260505174503 27 114 3.2 8.0 0.00 0.00 0.00 26 1013.0
20260505173003 29 74 3.2 9.7 0.00 0.00 0.00 26 1012.9
20260505171503 30 168 0.0 6.4 0.00 0.00 0.00 26 1012.9
20260505170004 31 122 1.6 8.0 0.00 0.00 0.00 26 1012.9
20260505164504 30 120 3.2 8.0 0.00 0.00 0.00 26 1012.9
20260505163004 30 146 3.2 8.0 0.00 0.00 0.00 26 1013.1
20260505161504 31 130 3.2 6.4 0.00 0.00 0.00 26 1013.3
20260505153004 32 122 3.2 6.4 0.00 0.00 0.00 26 1013.5
20260505151505 33 125 1.6 4.8 0.00 0.00 0.00 26 1013.6
20260505124504 32 117 0.0 3.2 0.00 0.00 0.00 26 1015.0
20260505123004 31 125 0.0 4.8 0.00 0.00 0.00 26 1015.0
20260505121504 31 57 0.0 3.2 0.00 0.00 0.00 26 1015.0
20260505120004 29 346 0.0 3.2 0.00 0.00 0.00 26 1015.0
20260505114504 28 4 0.0 4.8 0.00 0.00 0.00 26 1014.9
20260505113004 27 349 0.0 3.2 0.00 0.00 0.00 26 1014.9
20260505111503 26 346 1.6 4.8 0.00 0.00 0.00 26 1014.7
20260505101503 20 360 0.0 1.6 0.00 0.00 0.00 26 1014.1
20260505100004 20 0 0.0 0.0 0.00 0.00 0.00 26 1014.0
20260505094503 19 0 0.0 0.0 0.00 0.00 0.00 26 1013.6
20260505093004 19 360 0.0 3.2 0.00 0.00 0.00 26 1013.3
20260505091503 19 360 0.0 1.6 0.00 0.00 0.00 26 1013.1
20260505090004 19 360 0.0 1.6 0.00 0.00 0.00 26 1013.1
20260505084503 19 360 0.0 3.2 0.00 0.00 0.00 26 1012.7
20260505083003 19 360 0.0 1.6 0.00 0.00 0.00 26 1012.6
20260505081503 19 360 0.0 3.2 0.00 0.00 0.00 26 1012.4
20260505080003 19 360 0.0 1.6 0.00 0.00 0.00 26 1012.5
20260505074503 19 360 0.0 1.6 0.00 0.00 0.00 26 1012.4
20260505073003 19 0 0.0 0.0 0.00 0.00 0.00 26 1012.4
20260505071503 20 360 0.0 1.6 0.00 0.00 0.00 26 1012.4
20260505070003 20 360 0.0 3.2 0.00 0.00 0.00 26 1012.4
20260505064503 20 360 0.0 3.2 0.00 0.00 0.00 26 1012.7
20260505063003 20 360 0.0 1.6 0.00 0.00 0.00 26 1012.8
20260505061503 20 360 0.0 3.2 0.00 0.00 0.00 26 1013.0
20260505060003 20 2 0.0 3.2 0.00 0.00 0.00 26 1013.2
20260505054504 20 360 0.0 1.6 0.00 0.00 0.00 26 1011.6
20260505053003 20 360 0.0 1.6 0.00 0.00 0.00 26 1011.5
20260505051503 20 360 0.0 1.6 0.00 0.00 0.00 26 1011.5
20260505041503 20 360 0.0 1.6 0.00 0.00 0.00 26 1011.9
20260505040004 20 360 0.0 3.2 0.00 0.00 0.00 26 1012.0
20260505034503 20 360 0.0 1.6 0.00 0.00 0.00 26 1012.0
20260505033003 20 360 0.0 3.2 0.00 0.00 0.00 26 1012.2
20260505031503 20 360 0.0 3.2 0.00 0.00 0.00 26 1012.3
20260505030004 20 0 0.0 0.0 0.00 0.00 0.00 26 1012.4
20260505024503 20 360 0.0 1.6 0.00 0.00 0.00 26 1012.4
20260505023003 20 360 0.0 1.6 0.00 0.00 0.00 26 1012.3
20260505021503 21 360 0.0 1.6 0.00 0.00 0.00 26 1012.2
20260505020003 20 17 0.0 3.2 0.00 0.00 0.00 26 1012.3
20260505014504 21 352 0.0 3.2 0.00 0.00 0.00 26 1012.3
20260505013004 21 360 0.0 3.2 0.00 0.00 0.00 26 1012.3
20260505011504 21 360 0.0 3.2 0.00 0.00 0.00 26 1012.3
20260505010004 21 360 0.0 1.6 0.00 0.00 0.00 26 1012.4
20260505004504 21 360 0.0 1.6 0.00 0.00 0.00 26 1012.3
20260505003004 21 360 0.0 1.6 0.00 0.00 0.00 26 1012.4
20260505001504 21 360 0.0 3.2 0.00 0.00 0.00 26 1012.2
20260505000004 21 360 0.0 3.2 0.00 0.00 0.00 26 1012.2
20260504234504 21 360 0.0 3.2 0.00 0.00 0.00 26 1012.2
20260504233004 22 356 1.6 4.8 0.00 0.00 0.00 26 1011.9
20260504231504 22 9 0.0 4.8 0.00 0.00 0.00 26 1012.0
20260504230004 22 73 0.0 3.2 0.00 0.00 0.00 26 1012.0
20260504224504 22 135 0.0 1.6 0.00 0.00 0.00 26 1011.9
20260504223004 22 135 0.0 1.6 0.00 0.00 0.00 26 1011.9
20260504221504 22 135 0.0 1.6 0.00 0.00 0.00 26 1011.6
20260504220004 23 135 0.0 3.2 0.00 0.00 0.00 26 1011.4
20260504214504 23 27 0.0 3.2 0.00 0.00 0.00 26 1011.3
20260504213004 23 178 0.0 3.2 0.00 0.00 0.00 26 1011.2
20260504211504 23 135 0.0 3.2 0.00 0.00 0.00 26 1010.9
20260504210004 23 160 0.0 3.2 0.00 0.00 0.00 26 1010.9
20260504204504 23 315 0.0 3.2 0.00 0.00 0.00 26 1010.9
20260504203004 23 135 0.0 3.2 0.00 0.00 0.00 26 1010.6
20260504201504 23 132 0.0 3.2 0.00 0.00 0.00 26 1010.6
20260504200004 23 88 0.0 4.8 0.00 0.00 0.00 26 1010.7
20260504194503 23 165 0.0 4.8 0.00 0.00 0.00 26 1010.6
20260504193003 24 129 0.0 6.4 0.00 0.00 0.00 26 1010.7
20260504191503 24 158 0.0 4.8 0.00 0.00 0.00 26 1010.8
20260504190004 24 133 0.0 9.7 0.00 0.03 0.00 26 1010.9